EN

Hourly Weather Altynemel

Today, 21 January, Thursday

Time Temperature Precipitation Wind Pressure Humidity
00:00 -3°C° 0 mm 4 mps 657 mmHg 80%
01:00 -3°C° 0 mm 4 mps 656 mmHg 79%
02:00 -3°C° 0 mm 4 mps 656 mmHg 78%
03:00 -4°C° 0 mm 5 mps 655 mmHg 78%
04:00 -4°C° 0 mm 5 mps 655 mmHg 77%
05:00 -5°C° 0 mm 5 mps 654 mmHg 79%
06:00 -5°C° 0 mm 5 mps 653 mmHg 76%
07:00 -5°C° 0 mm 6 mps 653 mmHg 74%
08:00 -5°C° 0 mm 6 mps 652 mmHg 71%
09:00 -3°C° 0 mm 6 mps 652 mmHg 70%
10:00 -2°C° 0 mm 7 mps 651 mmHg 69%
11:00 -1°C° 0 mm 7 mps 651 mmHg 66%
12:00 -1°C° 0 mm 7 mps 650 mmHg 66%
13:00 -1°C° 0 mm 6 mps 649 mmHg 65%
14:00 -1°C° 0 mm 6 mps 648 mmHg 64%
15:00 -1°C° 0 mm 6 mps 648 mmHg 60%
16:00 -1°C° 0 mm 5 mps 648 mmHg 56%
17:00 -2°C° 0 mm 5 mps 647 mmHg 53%
18:00 -2°C° 0 mm 4 mps 647 mmHg 51%
19:00 -2°C° 0 mm 4 mps 647 mmHg 49%
20:00 -1°C° 0 mm 3 mps 647 mmHg 47%
21:00 -1°C° 0 mm 3 mps 647 mmHg 46%
22:00 -1°C° 0 mm 3 mps 647 mmHg 45%
23:00 -1°C° 0 mm 3 mps 646 mmHg 44%

Tomorrow, 22 January, Friday

Time Temperature Precipitation Wind Pressure Humidity
00:00 -1°C° 0 mm 3 mps 646 mmHg 44%
01:00 -3°C° 0 mm 4 mps 645 mmHg 44%
02:00 -3°C° 0 mm 4 mps 645 mmHg 43%
03:00 -2°C° 0 mm 3 mps 645 mmHg 44%
04:00 -2°C° 0 mm 3 mps 645 mmHg 44%
05:00 -2°C° 0 mm 2 mps 645 mmHg 44%
06:00 -2°C° 0 mm 2 mps 645 mmHg 43%
07:00 0°C° 0 mm 1 mps 646 mmHg 43%
08:00 -1°C° 0 mm 1 mps 646 mmHg 43%
09:00 -3°C° 0 mm 2 mps 647 mmHg 55%
10:00 -4°C° 0 mm 3 mps 648 mmHg 67%
11:00 -5°C° 0 mm 3 mps 649 mmHg 79%
12:00 -6°C° 1 mm 5 mps 650 mmHg 84%
13:00 -8°C° 1 mm 7 mps 652 mmHg 89%
14:00 -10°C° 1 mm 8 mps 653 mmHg 94%
15:00 -11°C° 1.2 mm 8 mps 654 mmHg 93%
16:00 -12°C° 1.2 mm 7 mps 656 mmHg 93%
17:00 -14°C° 1.2 mm 7 mps 657 mmHg 93%
18:00 -14°C° 0.6 mm 6 mps 658 mmHg 92%
19:00 -15°C° 0.6 mm 6 mps 659 mmHg 92%
20:00 -15°C° 0.6 mm 5 mps 659 mmHg 92%
21:00 -15°C° 0.3 mm 4 mps 660 mmHg 92%
22:00 -16°C° 0.3 mm 4 mps 660 mmHg 92%
23:00 -15°C° 0.3 mm 3 mps 660 mmHg 93%

Day after tomorrow, 23 January, Saturday

Time Temperature Precipitation Wind Pressure Humidity
00:00 -16°C° 0.1 mm 3 mps 660 mmHg 93%
01:00 -15°C° 0.1 mm 2 mps 660 mmHg 92%
02:00 -16°C° 0.1 mm 2 mps 660 mmHg 92%
03:00 -16°C° 0 mm 2 mps 660 mmHg 88%
04:00 -17°C° 0 mm 2 mps 660 mmHg 85%
05:00 -17°C° 0 mm 2 mps 660 mmHg 81%
06:00 -17°C° 0 mm 2 mps 660 mmHg 79%
07:00 -17°C° 0 mm 2 mps 660 mmHg 76%
08:00 -17°C° 0 mm 2 mps 660 mmHg 74%
09:00 -16°C° 0 mm 2 mps 660 mmHg 72%
10:00 -14°C° 0 mm 2 mps 661 mmHg 71%
11:00 -11°C° 0 mm 1 mps 661 mmHg 69%
12:00 -11°C° 0 mm 1 mps 661 mmHg 74%
13:00 -10°C° 0 mm 1 mps 661 mmHg 79%
14:00 -10°C° 0 mm 1 mps 660 mmHg 84%
15:00 -11°C° 0.1 mm 1 mps 660 mmHg 86%
16:00 -12°C° 0.1 mm 1 mps 660 mmHg 88%
17:00 -12°C° 0.1 mm 1 mps 660 mmHg 91%
18:00 -12°C° 0.1 mm 1 mps 660 mmHg 91%
19:00 -12°C° 0.1 mm 1 mps 660 mmHg 90%
20:00 -15°C° 0.1 mm 2 mps 660 mmHg 90%
21:00 -15°C° 0.1 mm 2 mps 660 mmHg 90%
22:00 -15°C° 0.1 mm 2 mps 659 mmHg 90%
23:00 -15°C° 0.1 mm 2 mps 659 mmHg 90%

24 January, Sunday

Time Temperature Precipitation Wind Pressure Humidity
00:00 -15°C° 0.1 mm 2 mps 660 mmHg 90%
01:00 -14°C° 0.1 mm 2 mps 660 mmHg 91%
02:00 -14°C° 0.1 mm 2 mps 660 mmHg 92%
03:00 -14°C° 0.4 mm 2 mps 660 mmHg 93%
04:00 -14°C° 0.4 mm 3 mps 661 mmHg 93%
05:00 -14°C° 0.4 mm 3 mps 661 mmHg 94%
06:00 -14°C° 0.4 mm 3 mps 662 mmHg 94%
07:00 -14°C° 0.4 mm 3 mps 662 mmHg 94%
08:00 -13°C° 0.4 mm 3 mps 663 mmHg 94%
09:00 -13°C° 0.3 mm 3 mps 663 mmHg 93%
10:00 -12°C° 0.3 mm 3 mps 663 mmHg 92%
11:00 -12°C° 0.3 mm 3 mps 663 mmHg 91%
12:00 -12°C° 0.2 mm 3 mps 663 mmHg 90%
13:00 -10°C° 0.2 mm 3 mps 663 mmHg 89%
14:00 -9°C° 0.2 mm 2 mps 663 mmHg 88%
15:00 -10°C° 0.1 mm 2 mps 663 mmHg 89%
16:00 -12°C° 0.1 mm 2 mps 663 mmHg 90%
17:00 -11°C° 0.1 mm 1 mps 663 mmHg 91%
18:00 -11°C° 0 mm 1 mps 663 mmHg 89%
19:00 -13°C° 0 mm 2 mps 663 mmHg 88%
20:00 -13°C° 0 mm 2 mps 663 mmHg 86%
21:00 -13°C° 0 mm 2 mps 662 mmHg 84%
22:00 -11°C° 0 mm 1 mps 662 mmHg 82%
23:00 -11°C° 0 mm 1 mps 662 mmHg 80%

25 January, Monday

Time Temperature Precipitation Wind Pressure Humidity
00:00 -11°C° 0 mm 1 mps 662 mmHg 79%
01:00 -11°C° 0 mm 1 mps 662 mmHg 78%
02:00 -11°C° 0 mm 1 mps 662 mmHg 76%
03:00 -11°C° 0 mm 1 mps 661 mmHg 76%
04:00 -11°C° 0 mm 1 mps 661 mmHg 76%
05:00 -11°C° 0 mm 1 mps 661 mmHg 76%
06:00 -11°C° 0 mm 1 mps 661 mmHg 76%
07:00 -11°C° 0 mm 1 mps 661 mmHg 75%
08:00 -11°C° 0 mm 1 mps 661 mmHg 75%
09:00 -10°C° 0 mm 1 mps 661 mmHg 74%
10:00 -8°C° 0 mm 1 mps 662 mmHg 73%
11:00 -7°C° 0 mm 0 mps 662 mmHg 72%
12:00 -7°C° 0 mm 0 mps 662 mmHg 74%
13:00 -7°C° 0 mm 1 mps 661 mmHg 77%
14:00 -7°C° 0 mm 1 mps 661 mmHg 79%
15:00 -9°C° 0 mm 0 mps 660 mmHg 79%
16:00 -11°C° 0 mm 0 mps 660 mmHg 80%
17:00 -12°C° 0 mm 0 mps 659 mmHg 80%
18:00 -12°C° 0 mm 0 mps 659 mmHg 75%
19:00 -12°C° 0 mm 0 mps 660 mmHg 70%
20:00 -12°C° 0 mm 1 mps 660 mmHg 65%
21:00 -12°C° 0 mm 1 mps 660 mmHg 63%
22:00 -12°C° 0 mm 1 mps 660 mmHg 61%
23:00 -13°C° 0 mm 1 mps 660 mmHg 58%

26 January, Tuesday

Time Temperature Precipitation Wind Pressure Humidity
00:00 -13°C° 0 mm 1 mps 659 mmHg 57%
01:00 -13°C° 0 mm 1 mps 659 mmHg 55%
02:00 -13°C° 0 mm 0 mps 659 mmHg 54%
03:00 -13°C° 0 mm 1 mps 659 mmHg 54%
04:00 -13°C° 0 mm 1 mps 659 mmHg 53%
05:00 -13°C° 0 mm 1 mps 659 mmHg 53%
06:00 -12°C° 0 mm 1 mps 659 mmHg 54%
07:00 -12°C° 0 mm 1 mps 660 mmHg 54%
08:00 -12°C° 0 mm 1 mps 660 mmHg 55%
09:00 -10°C° 0 mm 0 mps 661 mmHg 57%
10:00 -8°C° 0 mm 0 mps 661 mmHg 60%
11:00 -7°C° 0 mm 0 mps 662 mmHg 62%
12:00 -7°C° 0 mm 0 mps 661 mmHg 66%
13:00 -6°C° 0 mm 0 mps 661 mmHg 70%
14:00 -6°C° 0 mm 0 mps 661 mmHg 74%
15:00 -8°C° 0 mm 0 mps 661 mmHg 74%
16:00 -10°C° 0 mm 0 mps 660 mmHg 75%
17:00 -12°C° 0 mm 1 mps 660 mmHg 75%
18:00 -12°C° 0 mm 1 mps 660 mmHg 73%
19:00 -12°C° 0 mm 1 mps 660 mmHg 70%
20:00 -12°C° 0 mm 1 mps 660 mmHg 68%
21:00 -12°C° 0 mm 1 mps 660 mmHg 67%
22:00 -12°C° 0 mm 1 mps 660 mmHg 66%
23:00 -12°C° 0 mm 1 mps 660 mmHg 64%
Show more